Weather History for St. Johnsbury, VT

Change the Weather History Date:

Friday, November 15, 2013

  Actual Average Record
Temperature  
Mean Temperature 37 °F 36 °F  
Max Temperature 50 °F 45 °F 64 °F (2008)
Min Temperature 23 °F 28 °F 4 °F (1916)
Degree Days  
Heating Degree Days 28 29  
Month to date heating degree days 421 389  
Since 1 July heating degree days 1240 1176  
Cooling Degree Days 0 0  
Month to date cooling degree days 0  
Year to date cooling degree days 433  
Moisture  
Dew Point 21 °F    
Average Humidity 58    
Maximum Humidity 88    
Minimum Humidity 27    
Precipitation  
Precipitation 0.00 in 0.12 in 1.51 in (2007)
Month to date precipitation 0.93 1.73  
Year to date precipitation 31.79 34.75  
Sea Level Pressure  
Sea Level Pressure 30.13 in    
Wind  
Wind Speed - (North)    
Max Wind Speed -    
Max Gust Speed -    
T = Trace of Precipitation, MM = Missing Value Source: NWS Daily Summary

Daily Weather History Graph

Daily Weather History Graph

Search for Another Location

Airport:

Trip Planner

Search our weather history database for the weather conditions in past years. The results will help you decide how hot, cold, wet, or windy it might be!

Date:

Astronomy

Nov. 15, 2013 Rise Set
Actual Time 6:44 AM EST 4:20 PM EST
Civil Twilight 6:13 AM EST 4:51 PM EST
Nautical Twilight 5:37 AM EST 5:27 PM EST
Astronomical Twilight 5:03 AM EST 6:01 PM EST
Moon 3:18 PM EST (11/15) 4:33 AM EST (11/15)
Length of Visible Light 10h 38m
Length of Day
9h 36m
Waxing Gibbous, 96% of the Moon is Illuminated
Nov 15
Waxing Gibbous
Nov 17
Full
Nov 25
Last Quarter
Dec 2
New
Dec 9
First Quarter

Hourly Weather History & Observations

Time (EST) Temp. Dew Point Humidity Pressure Visibility Wind Dir Wind Speed Gust Speed Precip Events Conditions
12:54 AM 25.0 °F 21.9 °F 88% 30.08 in - North - - N/A   Unknown
1:54 AM 25.0 °F 21.9 °F 88% 30.09 in - North - - N/A   Unknown
2:54 AM 24.1 °F 21.9 °F 91% 30.10 in - North - - N/A   Unknown
3:54 AM 24.1 °F 21.0 °F 88% 30.10 in - North - - N/A   Unknown
4:54 AM 24.1 °F 21.0 °F 88% 30.11 in - North - - N/A   Unknown
5:54 AM 24.1 °F 21.0 °F 88% 30.12 in - North - - N/A   Unknown
6:54 AM 23.0 °F 19.9 °F 88% 30.14 in - North - - N/A   Unknown
7:54 AM 24.1 °F 21.0 °F 88% 30.15 in - North - - N/A   Unknown
8:54 AM 27.0 °F 23.0 °F 85% 30.15 in - North - - N/A   Unknown
9:54 AM 32.0 °F 25.0 °F 75% 30.14 in - North - - N/A   Unknown
10:54 AM 37.9 °F 25.0 °F 60% 30.13 in - North - - N/A   Unknown
11:54 AM 42.1 °F 21.9 °F 45% 30.11 in - North - - N/A   Unknown
12:54 PM 46.9 °F 18.0 °F 32% 30.09 in - North - - N/A   Unknown
1:54 PM 50.0 °F 17.1 °F 27% 30.07 in - North - - N/A   Unknown
2:54 PM 50.0 °F 18.0 °F 28% 30.07 in - North - - N/A   Unknown
3:54 PM 46.0 °F 19.0 °F 34% 30.09 in - North - - N/A   Unknown
4:54 PM 39.0 °F 21.9 °F 50% 30.11 in - North - - N/A   Unknown
5:54 PM 34.0 °F 23.0 °F 64% 30.13 in - North - - N/A   Unknown
6:54 PM 32.0 °F 21.9 °F 66% 30.15 in - North - - N/A   Unknown
7:54 PM 30.0 °F 21.9 °F 72% 30.17 in - North - - N/A   Unknown
8:54 PM 30.0 °F 21.9 °F 72% 30.17 in - North - - N/A   Unknown
9:54 PM 28.9 °F 21.9 °F 75% 30.18 in - North - - N/A   Unknown
10:54 PM 28.0 °F 21.9 °F 78% 30.19 in - North - - N/A   Unknown
11:54 PM 28.0 °F 23.0 °F 81% 30.21 in - North - - N/A   Unknown